Location: Big Meadows
(38.5260°N, 78.4400°W)
Time: 13:06:37
(UTC-04:00)

Amateur Radio Satellites - All Passes

Search period start: 31 October 2014 12:36
Search period end: 01 November 2014 12:36
Location: Big Meadows, 38.5260°N, 78.4400°W

Satellite Date Start Highest point End Downlink Frequencies (MHz)
Time Altitude Azimuth
KITSAT 1 31 Oct 12:37:11 12:44:44 42° 309° (NW) 12:52:20 435.175 FM
Oscar 19 31 Oct 12:43:22 12:46:30 17° 63° (ENE) 12:49:37 437.125 CW, 437.150 USB
JAS-1B 31 Oct 12:44:21 12:47:59 18° 61° (ENE) 12:51:37 435.800 - 435.900 CW/SSB
Sapphire 31 Oct 12:55:04 13:00:14 45° 248° (WSW) 13:05:21 437.095 MHz 1200 baud AX-25 AFSK
UOSAT-12 31 Oct 12:56:32 13:00:56 46° 116° (ESE) 13:05:26 437.025 FM, 437.400 FM
PCSat 31 Oct 13:17:17 13:21:45 27° 252° (WSW) 13:26:12 145.825 MHz
AO-27 31 Oct 13:19:41 13:22:37 15° 62° (ENE) 13:25:35 436.795 MHz FM
Oscar 16 31 Oct 13:28:19 13:33:11 45° 71° (ENE) 13:38:04 437.025 USB, Beacon 2401.1428
Saudisat 1A 31 Oct 13:35:46 13:36:27 10° 39° (NE) 13:37:08 436.775 MHz
Gurwin Techsat 1B 31 Oct 13:36:22 13:37:50 11° 59° (ENE) 13:39:19 435.225 FM
Uribyol 2 31 Oct 14:01:13 14:06:02 39° 70° (ENE) 14:10:51 436.500 FM
AO-Echo 31 Oct 14:03:44 14:08:31 49° 72° (ENE) 14:13:28 ?
ITAMSAT 1 31 Oct 14:09:03 14:13:57 43° 70° (ENE) 14:18:53 435.822 SSB
AO-7 31 Oct 14:11:37 14:13:04 11° 45° (NE) 14:14:30 29.400 - 29.500 MHz
Oscar 19 31 Oct 14:20:16 14:25:20 59° 259° (W) 14:30:24 437.125 CW, 437.150 USB
JAS-1B 31 Oct 14:32:29 14:38:11 56° 259° (W) 14:43:47 435.800 - 435.900 CW/SSB
UOSAT-12 31 Oct 14:37:42 14:41:18 22° 313° (NW) 14:44:58 437.025 FM, 437.400 FM
KITSAT 1 31 Oct 14:39:42 14:42:42 12° 335° (NNW) 14:45:42 435.175 FM
AO-27 31 Oct 14:56:22 15:01:33 66° 258° (WSW) 15:06:46 436.795 MHz FM
Oscar 16 31 Oct 15:08:59 15:12:43 20° 266° (W) 15:16:27 437.025 USB, Beacon 2401.1428
Gurwin Techsat 1B 31 Oct 15:11:40 15:16:58 89° 76° (ENE) 15:22:19 435.225 FM
Saudisat 1A 31 Oct 15:12:22 15:16:48 74° 58° (ENE) 15:21:12 436.775 MHz
TMSAT-1 31 Oct 15:18:03 15:23:20 76° 75° (ENE) 15:28:39 436.925 FM
ISS 31 Oct 15:33:47 15:35:41 14° 19° (NNE) 15:37:35 145.800 FM
Uribyol 2 31 Oct 15:41:26 15:45:35 24° 265° (W) 15:49:45 436.500 FM
AO-Echo 31 Oct 15:44:14 15:47:33 18° 268° (W) 15:50:58 ?
ITAMSAT 1 31 Oct 15:49:41 15:53:36 21° 266° (W) 15:57:32 435.822 SSB
AO-7 31 Oct 15:56:01 16:03:55 52° 65° (ENE) 16:11:52 29.400 - 29.500 MHz
Uosat F 31 Oct 15:56:09 16:00:09 25° 66° (ENE) 16:04:11 435.120 FM
JAS-2 31 Oct 16:52:28 16:57:48 29° 63° (ENE) 17:03:41 435.800 - 435.900 CW/SSB, 435.910 FM
Saudisat 1A 31 Oct 16:55:23 16:55:43 10° 253° (WSW) 16:56:02 436.775 MHz
TMSAT-1 31 Oct 17:01:50 17:03:47 12° 270° (W) 17:05:44 436.925 FM
Hamsat 31 Oct 17:06:38 17:08:42 14° 66° (ENE) 17:10:46 145.90 MHz
ISS 31 Oct 17:09:34 17:12:54 66° 37° (NE) 17:16:13 145.800 FM
Uosat F 31 Oct 17:34:06 17:38:43 36° 262° (W) 17:43:22 435.120 FM
AO-7 31 Oct 17:49:41 17:56:54 33° 263° (W) 18:04:11 29.400 - 29.500 MHz
OPAL 31 Oct 18:04:43 18:09:13 34° 100° (E) 18:13:41 ?
JAS-2 31 Oct 18:36:30 18:42:27 48° 263° (W) 18:49:12 435.800 - 435.900 CW/SSB, 435.910 FM
KITSAT 1 31 Oct 18:36:51 18:42:29 20° 37° (NE) 18:48:06 435.175 FM
Hamsat 31 Oct 18:40:11 18:44:13 47° 261° (W) 18:48:16 145.90 MHz
ISS 31 Oct 18:47:55 18:49:11 12° 232° (SW) 18:50:27 145.800 FM
SO-50 31 Oct 19:05:47 19:08:37 15° 42° (NE) 19:11:27 436.795 FM
SO-67 31 Oct 19:23:20 19:26:43 59° 76° (ENE) 19:30:07 435.3500 MHz FM
RS-15 31 Oct 19:42:03 19:49:04 20° 100° (E) 19:55:59 29.354 - 29.394 USB, Beacon 29.352 USB
OPAL 31 Oct 19:43:54 19:47:56 26° 295° (WNW) 19:51:57 ?
STRAND 1 31 Oct 20:00:59 20:06:08 69° 102° (ESE) 20:11:14 ?
HO-68 31 Oct 20:04:23 20:10:03 26° 60° (ENE) 20:15:43 435.675 MHz FM
AO-40 31 Oct 20:05:12 22:21:15 21° 112° (ESE) 23:30:58 Beacon 2401.320
KITSAT 1 31 Oct 20:31:11 20:39:18 77° 60° (ENE) 20:47:21 435.175 FM
SO-50 31 Oct 20:44:53 20:49:46 82° 240° (WSW) 20:54:39 436.795 FM
UKube-1 31 Oct 20:50:26 20:52:00 12° 63° (ENE) 20:53:35 145.840 MHz, 145.915 MHz
Oscar 10/S400 31 Oct 20:56:04 21:34:46 54° 202° (SSW) 07:07:38 145.825 - 145.975 CW/USB, Beacon 145.810 USB
Oscar 11 31 Oct 21:23:00 21:26:28 24° 69° (ENE) 21:29:56 145.825 FM, Beacon 2401.500 USB
UOSAT-12 31 Oct 21:27:39 21:31:46 29° 50° (NE) 21:35:49 437.025 FM, 437.400 FM
FUNcube-1 31 Oct 21:41:10 21:44:04 17° 67° (ENE) 21:46:57 145.950 - 145.970 MHz USB
STRAND 1 31 Oct 21:42:02 21:44:42 14° 298° (WNW) 21:47:22 ?
MaSat-1 31 Oct 21:48:19 21:51:38 26° 109° (ESE) 21:54:42 437.345 MHz
RS-15 31 Oct 21:48:45 21:59:47 89° 119° (ESE) 22:10:46 29.354 - 29.394 USB, Beacon 29.352 USB
HO-68 31 Oct 21:50:11 21:57:13 60° 258° (WSW) 22:04:20 435.675 MHz FM
UKube-1 31 Oct 22:23:19 22:27:38 63° 258° (WSW) 22:31:58 145.840 MHz, 145.915 MHz
KITSAT 1 31 Oct 22:28:10 22:33:48 21° 257° (WSW) 22:39:25 435.175 FM
ZACube-1 31 Oct 22:32:47 22:37:16 63° 75° (ENE) 22:41:41 437.345 MHz
Oscar 11 31 Oct 22:58:51 23:02:31 27° 264° (W) 23:06:12 145.825 FM, Beacon 2401.500 USB
UOSAT-12 31 Oct 23:07:43 23:11:54 32° 247° (WSW) 23:15:59 437.025 FM, 437.400 FM
FUNcube-1 31 Oct 23:15:47 23:20:06 43° 261° (W) 23:24:22 145.950 - 145.970 MHz USB
MaSat-1 31 Oct 23:24:03 23:26:58 20° 301° (WNW) 23:29:40 437.345 MHz
RS-15 01 Nov 00:04:33 00:13:40 29° 325° (NW) 00:22:53 29.354 - 29.394 USB, Beacon 29.352 USB
ZACube-1 01 Nov 00:12:40 00:13:59 11° 269° (W) 00:15:18 437.345 MHz
Oscar 16 01 Nov 01:42:30 01:45:51 17° 93° (E) 01:49:12 437.025 USB, Beacon 2401.1428
Sapphire 01 Nov 01:52:45 01:57:18 28° 108° (ESE) 02:01:53 437.095 MHz 1200 baud AX-25 AFSK
AO-Echo 01 Nov 02:13:20 02:17:03 19° 92° (E) 02:20:42 ?
PCSat 01 Nov 02:13:36 02:18:46 48° 112° (ESE) 02:23:58 145.825 MHz
JAS-1B 01 Nov 02:15:25 02:22:26 44° 100° (E) 02:30:38 435.800 - 435.900 CW/SSB
Uribyol 2 01 Nov 02:16:45 02:19:42 15° 92° (E) 02:22:37 436.500 FM
ITAMSAT 1 01 Nov 02:24:30 02:27:52 17° 92° (E) 02:31:12 435.822 SSB
RS-15 01 Nov 02:25:11 02:31:23 16° 0° (N) 02:37:41 29.354 - 29.394 USB, Beacon 29.352 USB
Oscar 19 01 Nov 02:33:15 02:38:17 55° 101° (E) 02:43:18 437.125 CW, 437.150 USB
AO-27 01 Nov 03:10:57 03:16:02 50° 100° (E) 03:21:04 436.795 MHz FM
Oscar 16 01 Nov 03:20:31 03:25:28 51° 288° (WNW) 03:30:24 437.025 USB, Beacon 2401.1428
Gurwin Techsat 1B 01 Nov 03:29:36 03:34:36 40° 98° (E) 03:39:33 435.225 FM
Sapphire 01 Nov 03:35:33 03:40:33 38° 305° (NW) 03:45:35 437.095 MHz 1200 baud AX-25 AFSK
TMSAT-1 01 Nov 03:35:44 03:40:31 33° 97° (E) 03:45:16 436.925 FM
AO-Echo 01 Nov 03:50:54 03:56:03 50° 288° (WNW) 04:01:06 ?
Uribyol 2 01 Nov 03:54:25 03:59:32 59° 287° (WNW) 04:04:36 436.500 FM
PCSat 01 Nov 03:58:03 04:02:25 24° 310° (NW) 04:06:48 145.825 MHz
AO-7 01 Nov 04:01:03 04:05:58 17° 91° (E) 04:10:52 29.400 - 29.500 MHz
ITAMSAT 1 01 Nov 04:02:35 04:07:39 53° 288° (WNW) 04:12:41 435.822 SSB
JAS-1B 01 Nov 04:06:22 04:12:51 38° 292° (WNW) 04:20:26 435.800 - 435.900 CW/SSB
Oscar 19 01 Nov 04:13:53 04:17:10 17° 296° (WNW) 04:20:26 437.125 CW, 437.150 USB
RS-15 01 Nov 04:39:44 04:49:07 30° 36° (NE) 04:58:45 29.354 - 29.394 USB, Beacon 29.352 USB
PANSAT 01 Nov 04:47:24 04:49:48 16° 171° (S) 04:52:12 not established
AO-27 01 Nov 04:51:29 04:55:08 20° 296° (WNW) 04:58:46 436.795 MHz FM
Gurwin Techsat 1B 01 Nov 05:10:05 05:14:18 25° 294° (WNW) 05:18:30 435.225 FM
TMSAT-1 01 Nov 05:15:49 05:20:18 29° 293° (WNW) 05:24:46 436.925 FM
Saudisat 1A 01 Nov 05:17:56 05:21:34 26° 113° (ESE) 05:25:13 436.775 MHz
OPAL 01 Nov 05:18:03 05:23:02 55° 70° (ENE) 05:27:57 ?
STRAND 1 01 Nov 05:41:45 05:42:11 10° 59° (ENE) 05:42:38 ?
Uosat F 01 Nov 05:42:43 05:47:47 77° 103° (ESE) 05:52:49 435.120 FM
JAS-2 01 Nov 05:47:10 05:54:06 33° 94° (E) 06:00:44 435.800 - 435.900 CW/SSB, 435.910 FM
AO-7 01 Nov 05:51:18 05:59:41 90° 288° (WNW) 06:08:03 29.400 - 29.500 MHz
PANSAT 01 Nov 06:26:42 06:29:20 18° 184° (S) 06:31:57 not established
Hamsat 01 Nov 06:27:11 06:30:58 31° 97° (E) 06:34:44 145.90 MHz
RS-15 01 Nov 06:51:48 07:03:04 90° 241° (WSW) 07:14:51 29.354 - 29.394 USB, Beacon 29.352 USB
Saudisat 1A 01 Nov 06:57:07 07:01:00 31° 309° (NW) 07:04:56 436.775 MHz
OPAL 01 Nov 06:59:02 07:02:11 16° 265° (W) 07:05:19 ?
STRAND 1 01 Nov 07:15:24 07:20:32 85° 75° (ENE) 07:25:43 ?
Uosat F 01 Nov 07:23:48 07:25:53 13° 299° (WNW) 07:27:57 435.120 FM
JAS-2 01 Nov 07:31:42 07:39:14 51° 291° (WNW) 07:46:29 435.800 - 435.900 CW/SSB, 435.910 FM
MaSat-1 01 Nov 07:33:55 07:35:51 20° 59° (ENE) 07:37:43 437.345 MHz
AO-7 01 Nov 07:45:48 07:51:22 20° 307° (NW) 07:56:57 29.400 - 29.500 MHz
Hamsat 01 Nov 08:03:35 08:06:42 20° 292° (WNW) 08:09:49 145.90 MHz
PANSAT 01 Nov 08:08:07 08:08:47 10° 197° (SSW) 08:09:27 not established
SO-67 01 Nov 08:20:34 08:24:01 90° 79° (E) 08:27:27 435.3500 MHz FM
RS-15 01 Nov 09:06:22 09:13:58 21° 259° (W) 09:21:49 29.354 - 29.394 USB, Beacon 29.352 USB
HO-68 01 Nov 09:19:57 09:26:03 29° 96° (E) 09:32:05 435.675 MHz FM
ISS 01 Nov 09:50:33 09:53:44 46° 136° (SE) 09:56:56 145.800 FM
UKube-1 01 Nov 10:13:26 10:16:58 24° 96° (E) 10:20:29 145.840 MHz, 145.915 MHz
ZACube-1 01 Nov 10:25:32 10:27:15 12° 91° (E) 10:28:58 437.345 MHz
Sapphire 01 Nov 10:42:03 10:45:58 20° 48° (NE) 10:49:51 437.095 MHz 1200 baud AX-25 AFSK
Oscar 11 01 Nov 10:47:02 10:51:18 58° 100° (E) 10:55:32 145.825 FM, Beacon 2401.500 USB
KITSAT 1 01 Nov 10:57:18 11:05:15 66° 114° (ESE) 11:13:14 435.175 FM
SO-50 01 Nov 10:58:31 11:02:47 45° 116° (ESE) 11:07:10 436.795 FM
PCSat 01 Nov 11:03:06 11:07:51 30° 53° (NE) 11:12:34 145.825 MHz
FUNcube-1 01 Nov 11:06:21 11:10:15 37° 98° (E) 11:14:05 145.950 - 145.970 MHz USB
HO-68 01 Nov 11:07:03 11:13:57 51° 292° (WNW) 11:20:48 435.675 MHz FM
ISS 01 Nov 11:27:53 11:30:34 22° 333° (NNW) 11:33:16 145.800 FM
UOSAT-12 01 Nov 11:40:57 11:41:52 11° 106° (ESE) 11:42:46 437.025 FM, 437.400 FM
UKube-1 01 Nov 11:49:23 11:53:06 28° 291° (WNW) 11:56:48 145.840 MHz, 145.915 MHz
ZACube-1 01 Nov 11:59:54 12:03:56 47° 287° (WNW) 12:07:54 437.345 MHz
Sapphire 01 Nov 12:24:28 12:29:50 64° 246° (WSW) 12:35:10 437.095 MHz 1200 baud AX-25 AFSK
Oscar 11 01 Nov 12:25:17 12:26:57 12° 296° (WNW) 12:28:38 145.825 FM, Beacon 2401.500 USB
